TimeCEST,TemperatureF,Dew PointF,Humidity,Sea Level PressureIn,VisibilityMPH,Wind Direction,Wind SpeedMPH,Gust SpeedMPH,PrecipitationIn,Events,Conditions,WindDirDegrees,DateUTC
12:00 AM,78,52,29,30.04,,SW,4.5,,,,,220,2013-07-16 22:00:00
1:00 AM,79,48,24,30.06,,WSW,6.9,,,,,250,2013-07-16 23:00:00
2:00 AM,75,54,38,30.07,,West,2.3,,,,Unknown Precipitation,270,2013-07-17 00:00:00
3:00 AM,74,54,39,30.08,,WSW,3.5,,,,,240,2013-07-17 01:00:00
4:00 AM,71,54,45,30.09,,West,2.3,,,,,260,2013-07-17 02:00:00
5:00 AM,70,55,49,30.09,,WNW,6.7,,,,,290,2013-07-17 03:00:00
6:00 AM,68,56,56,30.08,,South,3.5,,,,,190,2013-07-17 04:00:00
7:00 AM,65,54,59,30.09,,South,1.2,,,,,180,2013-07-17 05:00:00
7:00 AM,66.2,53.6,64,30.09,-9999.0,Variable,1.2,-,N/A,,Clear,0,2013-07-17 05:00:00
8:00 AM,67,55,56,30.10,6,Calm,Calm,,,,Haze,,2013-07-17 06:00:00
8:00 AM,64.4,53.6,68,30.09,-9999.0,Calm,Calm,-,N/A,,Clear,0,2013-07-17 06:00:00
9:00 AM,74,54,40,30.11,,Calm,Calm,,,,,,2013-07-17 07:00:00
9:00 AM,73.4,53.6,50,30.09,-9999.0,Calm,Calm,-,N/A,,Clear,0,2013-07-17 07:00:00
10:00 AM,81,53,28,30.11,,Calm,Calm,,,,,,2013-07-17 08:00:00
10:00 AM,78.8,53.6,42,30.09,-9999.0,Calm,Calm,-,N/A,,Clear,0,2013-07-17 08:00:00
11:00 AM,80.6,53.6,39,30.09,-9999.0,SSE,1.2,-,N/A,,Clear,160,2013-07-17 09:00:00
12:00 PM,89,52,18,30.09,,SSE,2.3,,,,,150,2013-07-17 10:00:00
12:00 PM,86.0,53.6,33,30.09,-9999.0,SSE,2.3,-,N/A,,Clear,160,2013-07-17 10:00:00
1:00 PM,94,51,14,30.08,,SSE,2.3,,,,,150,2013-07-17 11:00:00
1:00 PM,89.6,53.6,29,30.09,-9999.0,South,2.3,-,N/A,,Clear,180,2013-07-17 11:00:00
2:00 PM,91.4,51.8,26,30.06,6.2,SSW,2.3,-,N/A,,Partly Cloudy,210,2013-07-17 12:00:00
3:00 PM,99,46,9,30.03,,SSW,5.8,,,,,210,2013-07-17 13:00:00
3:00 PM,95.0,50.0,22,30.04,6.2,SSW,4.6,-,N/A,,Partly Cloudy,210,2013-07-17 13:00:00
4:00 PM,100,42,7,30.01,,WNW,8.9,,,,,290,2013-07-17 14:00:00
4:00 PM,96.8,46.4,18,30.01,6.2,West,4.6,-,N/A,,Partly Cloudy,270,2013-07-17 14:00:00
5:00 PM,96.8,48.2,19,30.01,6.2,NW,4.6,-,N/A,,Partly Cloudy,310,2013-07-17 15:00:00
6:00 PM,101,37,5,29.97,,WSW,8.9,,,,,250,2013-07-17 16:00:00
6:00 PM,98.6,41.0,14,29.98,6.2,West,5.8,-,N/A,,Partly Cloudy,270,2013-07-17 16:00:00
7:00 PM,93.2,44.6,19,29.98,-9999.0,WSW,6.9,-,N/A,,Clear,240,2013-07-17 17:00:00
8:00 PM,99,43,8,29.96,19,West,9.2,,,,,260,2013-07-17 18:00:00
8:00 PM,95.0,48.2,20,29.98,-9999.0,West,8.1,-,N/A,,Clear,260,2013-07-17 18:00:00
9:00 PM,91.4,48.2,23,29.98,-9999.0,West,6.9,-,N/A,,Clear,260,2013-07-17 19:00:00
10:00 PM,86.0,51.8,31,29.98,-9999.0,West,5.8,-,N/A,,Clear,260,2013-07-17 20:00:00